Flag for Brazil Weather past 2 weeks in Brasilia, Distrito Federal, Brazil

Now
73 °F

Sunny.


Feels Like: 77 °F
Forecast: 60 / 78 °F
Wind: 14 mph from Northeast

Location: Brasilia Aeroporto

Current Time: Jul 22, 2014 at 12:11:32 PM

Latest Report: Jul 22, 2014 at 11:00 AM


Visibility: 10 mi

Pressure: 30.30 "Hg

Humidity: 47%

Dew point: 52 °F

Location of BrasiliaLocation

Historic Weather in Brasilia — Graph

°F

Brasilia temperature yesterday

Maximum temperature yesterday: 82 °F (at 2:00 PM)
Minimum temperature yesterday: 61 °F (at 7:00 AM)
Average temperature yesterday: 72 °F

Past Weeks' High & Low Weather Summary

 TemperatureHumidityPressure
High84 °F (Jul 18, 2:00 PM)83% (Jul 18, 4:00 AM)30.33 "Hg (Jul 18, 4:00 AM)
Low54 °F (Jul 16, 6:00 AM)19% (Jul 18, 3:00 PM)30.09 "Hg (Jul 10, 3:00 PM)
Average70 °F52%30.22 "Hg
* Reported Jul 7 11:00 AM — Jul 22 11:00 AM, Brasilia, Weather by CustomWeather, © 2014

Note: Actual official high and low records may vary slightly from our data, if they occured in-between our weather recording intervals... More about our weather records

Advertising

Brasilia weather history for previous 24 hours

 ConditionsComfort  
Time TempWeatherWind HumidityBarometerVisibility
11:00 AM
Jul 22
73 °FSunny.14 mph47%30.30 "Hg10 mi
10:00 AM70 °FSunny.12 mph53%30.30 "Hg10 mi
9:00 AM66 °FSunny.10 mph60%30.30 "Hg10 mi
8:00 AM64 °FSunny.3 mph64%30.27 "Hg10 mi
7:00 AM61 °FSunny.3 mph68%30.24 "Hg10 mi
6:00 AM61 °FClear.2 mph77%30.21 "Hg10 mi
5:00 AM63 °FClear.2 mph64%30.21 "Hg10 mi
4:00 AM64 °FClear.3 mph64%30.18 "Hg10 mi
3:00 AM66 °FClear.5 mph56%30.18 "Hg10 mi
2:00 AM63 °FClear.No wind73%30.18 "Hg10 mi
1:00 AM66 °FPassing clouds.3 mph64%30.21 "HgN/A
12:00 AM68 °FPassing clouds.2 mph60%30.21 "HgN/A
11:00 PM
Jul 21
70 °FPassing clouds.5 mph53%30.21 "HgN/A
10:00 PM72 °FPassing clouds.5 mph50%30.21 "HgN/A
9:00 PM72 °FPassing clouds.7 mph50%30.18 "HgN/A
8:00 PM73 °FPassing clouds.6 mph47%30.18 "HgN/A
7:00 PM75 °FThundershowers. Passing clouds.7 mph44%30.15 "HgN/A
6:00 PM79 °FPassing clouds.7 mph37%30.15 "HgN/A
5:00 PM81 °FScattered clouds.13 mph32%30.15 "HgN/A
4:00 PM82 °FPartly sunny.9 mph30%30.12 "HgN/A
3:00 PM82 °FPartly sunny.13 mph30%30.12 "HgN/A
2:00 PM82 °FPartly sunny.5 mph30%30.15 "HgN/A
1:00 PM81 °FScattered clouds.9 mph34%30.18 "HgN/A
12:00 PM79 °FPassing clouds.13 mph39%30.24 "HgN/A
Weather by CustomWeather, © 2014

See weather overviewHow to use our weather pages